Location: GMARS
(34.2910°N, 116.3838°W)
Time: 21:14:57
(UTC-08:00)

Envisat - Pass Details

Date: 25 October 2019
Orbit: 764 x 766 km, 98.1° (Epoch: 14 November)

Event Time Altitude Azimuth Distance (km) Brightness Sun altitude
Rises 19:01:07 0° 171° (S) 3,215 6.2 -13.3°
Reaches altitude 10° 19:03:25 10° 172° (S) 2,292 5.5 -13.8°
Maximum altitude 19:08:27 75° 258° (WSW) 793 3.2 -14.8°
Drops below altitude 10° 19:13:33 10° 344° (NNW) 2,305 5.6 -15.9°
Sets 19:15:52 0° 346° (NNW) 3,235 6.4 -16.4°
